Location: Maccacari
(45.1333°N, 11.1333°E)
Time: 22:05:48
(UTC+00:00)

CENTAUR R/B - Pass Details

Date: 18 September 2020
Orbit: 755 x 1433 km, 63.4° (Epoch: 02 October)

Event Time Altitude Azimuth Distance (km) Brightness Sun altitude
Rises 21:15:29 0° 317° (NW) 4,235 6.8 -37.0°
Reaches altitude 10° 21:18:26 10° 309° (NW) 3,343 6.0 -37.4°
Enters shadow 21:25:43 37° 248° (WSW) 2,041 4.1 -38.1°
